| time (UTC) | temp F | wind direction | speed knots | gust knots | rain 1hr in | rain 24hr in | rain mn in | humidity % | barometer mb |
| 20260906234500 | 0 | 325 | 0.0 | 0.0 | 0.00 | 0.09 | 0.09 | 1014.2 | |
| 20260906233955 | 0 | 305 | 0.0 | 0.0 | 0.00 | 0.09 | 0.09 | 1014.2 | |
| 20260906233455 | 0 | 308 | 0.0 | 0.0 | 0.00 | 0.09 | 0.09 | 1014.3 | |
| 20260906232954 | 0 | 330 | 0.0 | 0.0 | 0.00 | 0.09 | 0.09 | 1014.3 | |
| 20260906232449 | 0 | 295 | 0.0 | 0.0 | 0.00 | 0.09 | 0.09 | 1014.1 | |
| 20260906231944 | 0 | 315 | 0.0 | 0.0 | 0.00 | 0.09 | 0.09 | 1014.0 | |
| 20260906231439 | 0 | 337 | 0.0 | 0.0 | 0.00 | 0.09 | 0.09 | 1014.3 | |
| 20260906230939 | 63 | 0 | 0.0 | 0.0 | 0.00 | 0.09 | 0.09 | 81 | 1014.4 |
| 20260906230433 | 0 | 304 | 0.0 | 0.0 | 0.00 | 0.09 | 0.09 | 1014.4 | |
| 20260906225932 | 0 | 325 | 0.0 | 0.0 | 0.00 | 0.09 | 0.09 | 1014.3 | |
| 20260906225427 | 0 | 289 | 0.0 | 0.0 | 0.00 | 0.09 | 0.09 | 1014.3 | |
| 20260906224923 | 0 | 325 | 0.0 | 0.0 | 0.00 | 0.09 | 0.09 | 1014.3 | |
| 20260906224419 | 0 | 298 | 0.0 | 0.0 | 0.00 | 0.09 | 0.09 | 1014.5 | |
| 20260906223915 | 0 | 355 | 0.0 | 0.0 | 0.00 | 0.09 | 0.09 | 1014.3 | |
| 20260906223411 | 0 | 324 | 0.0 | 0.0 | 0.00 | 0.09 | 0.09 | 1014.4 | |
| 20260906222909 | 0 | 327 | 0.0 | 0.0 | 0.00 | 0.09 | 0.09 | 1014.3 | |
| 20260906222409 | 0 | 325 | 0.0 | 0.0 | 0.00 | 0.09 | 0.09 | 1014.8 | |
| 20260906221906 | 0 | 311 | 0.0 | 0.0 | 0.00 | 0.09 | 0.09 | 1014.7 | |
| 20260906221405 | 62 | 281 | 0.0 | 0.0 | 0.00 | 0.09 | 0.09 | 81 | 1014.6 |
| 20260906220901 | 62 | 286 | 0.0 | 0.0 | 0.00 | 0.09 | 0.09 | 79 | 1014.8 |
| 20260906220356 | 62 | 289 | 0.0 | 0.0 | 0.00 | 0.09 | 0.09 | 80 | 1014.9 |
| 20260906215855 | 62 | 294 | 0.0 | 0.0 | 0.00 | 0.09 | 0.09 | 79 | 1014.8 |
| 20260906215350 | 62 | 286 | 0.0 | 0.0 | 0.00 | 0.09 | 0.09 | 80 | 1014.9 |
| 20260906214848 | 62 | 273 | 0.0 | 0.0 | 0.00 | 0.09 | 0.09 | 79 | 1014.9 |
| 20260906214348 | 62 | 268 | 0.0 | 0.0 | 0.00 | 0.09 | 0.09 | 79 | 1015.1 |
| 20260906213847 | 62 | 248 | 0.0 | 0.0 | 0.00 | 0.09 | 0.09 | 79 | 1014.7 |
| 20260906213342 | 0 | 251 | 0.0 | 0.0 | 0.00 | 0.09 | 0.09 | 1015.1 | |
| 20260906212839 | 0 | 248 | 0.0 | 0.0 | 0.00 | 0.09 | 0.09 | 1014.7 | |
| 20260906212335 | 0 | 249 | 0.0 | 0.0 | 0.00 | 0.09 | 0.09 | 1014.9 | |
| 20260906211834 | 0 | 241 | 0.0 | 0.0 | 0.00 | 0.09 | 0.09 | 1014.8 | |
| 20260906211330 | 0 | 230 | 0.0 | 0.0 | 0.00 | 0.09 | 0.09 | 1014.7 | |
| 20260906210825 | 0 | 225 | 0.0 | 0.0 | 0.00 | 0.09 | 0.09 | 1014.9 | |
| 20260906210324 | 0 | 201 | 0.0 | 0.0 | 0.00 | 0.09 | 0.09 | 1014.9 | |
| 20260906205819 | 0 | 192 | 0.0 | 0.0 | 0.00 | 0.09 | 0.09 | 1014.8 | |
| 20260906205316 | 0 | 179 | 0.0 | 0.0 | 0.00 | 0.09 | 0.09 | 1015.1 | |
| 20260906204811 | 0 | 89 | 0.0 | 0.0 | 0.00 | 0.09 | 0.09 | 1014.8 | |
| 20260906204310 | 0 | 175 | 0.0 | 0.0 | 0.00 | 0.09 | 0.09 | 1014.8 | |
| 20260906203809 | 0 | 139 | 0.0 | 0.0 | 0.00 | 0.09 | 0.09 | 1014.9 | |
| 20260906203305 | 0 | 57 | 0.0 | 0.0 | 0.00 | 0.09 | 0.09 | 1014.9 | |
| 20260906202802 | 0 | 82 | 0.0 | 0.0 | 0.00 | 0.09 | 0.09 | 1015.2 | |
| 20260906202301 | 0 | 119 | 0.0 | 0.0 | 0.00 | 0.09 | 0.09 | 1015.1 | |
| 20260906201756 | 0 | 93 | 0.0 | 0.0 | 0.00 | 0.09 | 0.09 | 1014.9 | |
| 20260906201256 | 0 | 90 | 0.0 | 0.0 | 0.00 | 0.09 | 0.09 | 1015.1 | |
| 20260906200752 | 0 | 70 | 0.0 | 0.0 | 0.00 | 0.09 | 0.09 | 1014.9 | |
| 20260906200248 | 0 | 127 | 0.0 | 0.0 | 0.00 | 0.09 | 0.09 | 1015.2 | |
| 20260906195743 | 0 | 116 | 1.7 | 3.5 | 0.00 | 0.09 | 0.09 | 1015.1 | |
| 20260906195239 | 0 | 90 | 0.0 | 0.0 | 0.00 | 0.09 | 0.09 | 1015.4 | |
| 20260906194735 | 0 | 112 | 0.0 | 0.0 | 0.00 | 0.09 | 0.09 | 1015.6 | |
| 20260906194230 | 0 | 59 | 0.0 | 0.0 | 0.00 | 0.09 | 0.09 | 1015.3 | |
| 20260906193725 | 0 | 74 | 0.0 | 1.7 | 0.00 | 0.09 | 0.09 | 1015.4 | |
| 20260906193220 | 0 | 73 | 0.0 | 1.7 | 0.00 | 0.09 | 0.09 | 1015.4 | |
| 20260906192716 | 0 | 65 | 0.0 | 0.0 | 0.00 | 0.09 | 0.09 | 1015.4 | |
| 20260906192215 | 0 | 74 | 0.9 | 1.7 | 0.00 | 0.09 | 0.09 | 1015.5 | |
| 20260906191710 | 0 | 70 | 3.5 | 7.0 | 0.00 | 0.09 | 0.09 | 1015.4 | |
| 20260906191209 | 0 | 58 | 0.0 | 0.0 | 0.00 | 0.09 | 0.09 | 1015.7 | |
| 20260906190704 | 0 | 69 | 1.7 | 1.7 | 0.00 | 0.09 | 0.09 | 1015.6 | |
| 20260906190159 | 0 | 66 | 0.0 | 0.0 | 0.00 | 0.09 | 0.09 | 1015.9 | |
| 20260906185658 | 0 | 85 | 0.0 | 0.0 | 0.00 | 0.09 | 0.09 | 1015.7 | |
| 20260906185157 | 0 | 78 | 0.0 | 0.9 | 0.00 | 0.09 | 0.09 | 1015.8 | |
| 20260906184651 | 0 | 61 | 0.0 | 0.9 | 0.00 | 0.09 | 0.09 | 1015.8 | |
| 20260906184147 | 0 | 66 | 0.0 | 0.0 | 0.00 | 0.09 | 0.09 | 1016.0 | |
| 20260906183642 | 0 | 56 | 0.0 | 0.0 | 0.00 | 0.09 | 0.09 | 1015.5 | |
| 20260906183139 | 0 | 38 | 0.0 | 0.0 | 0.00 | 0.09 | 0.09 | 1015.9 | |
| 20260906182638 | 0 | 61 | 0.0 | 0.0 | 0.00 | 0.09 | 0.09 | 1015.8 | |
| 20260906182135 | 0 | 51 | 0.0 | 0.9 | 0.00 | 0.09 | 0.09 | 1015.8 | |
| 20260906181630 | 0 | 55 | 0.9 | 1.7 | 0.00 | 0.09 | 0.09 | 1015.7 | |
| 20260906181126 | 0 | 73 | 8.7 | 9.6 | 0.00 | 0.09 | 0.09 | 1015.6 | |
| 20260906180621 | 0 | 78 | 1.7 | 2.6 | 0.00 | 0.09 | 0.09 | 1015.6 | |
| 20260906180120 | 0 | 49 | 1.7 | 3.5 | 0.00 | 0.09 | 0.09 | 1015.7 | |
| 20260906175618 | 0 | 25 | 0.9 | 1.7 | 0.00 | 0.09 | 0.09 | 1015.7 | |
| 20260906175114 | 0 | 356 | 1.7 | 3.5 | 0.00 | 0.09 | 0.09 | 1015.7 | |
| 20260906174612 | 0 | 14 | 0.0 | 0.0 | 0.00 | 0.09 | 0.09 | 1016.0 | |
| 20260906174107 | 0 | 5 | 0.0 | 0.9 | 0.00 | 0.09 | 0.09 | 1015.9 | |
| 20260906173601 | 0 | 16 | 0.0 | 0.0 | 0.00 | 0.09 | 0.09 | 1016.4 | |
| 20260906173052 | 0 | 333 | 0.0 | 0.0 | 0.00 | 0.09 | 0.09 | 1016.1 | |
| 20260906172546 | 0 | 339 | 0.0 | 0.0 | 0.00 | 0.09 | 0.09 | 1016.3 | |
| 20260906172042 | 0 | 3 | 0.9 | 1.7 | 0.00 | 0.09 | 0.09 | 1016.5 | |
| 20260906171541 | 0 | 43 | 0.0 | 0.9 | 0.00 | 0.09 | 0.09 | 1016.5 | |
| 20260906171037 | 0 | 17 | 0.0 | 0.0 | 0.00 | 0.09 | 0.09 | 1016.5 | |
| 20260906170533 | 0 | 40 | 0.9 | 1.7 | 0.00 | 0.09 | 0.09 | 1016.6 | |
| 20260906170032 | 56 | 35 | 0.9 | 1.7 | 0.00 | 0.09 | 0.09 | 90 | 1016.0 |
| 20260906165529 | 0 | 51 | 1.7 | 2.6 | 0.00 | 0.09 | 0.09 | 1016.4 | |
| 20260906165024 | 0 | 46 | 0.0 | 0.0 | 0.00 | 0.09 | 0.09 | 1016.4 | |
| 20260906164523 | 0 | 70 | 1.7 | 5.2 | 0.00 | 0.09 | 0.09 | 1016.1 | |
| 20260906164019 | 0 | 10 | 0.0 | 0.0 | 0.00 | 0.09 | 0.09 | 1017.4 | |
| 20260906163514 | 56 | 332 | 0.0 | 0.0 | 0.00 | 0.09 | 0.09 | 91 | 1017.4 |
| 20260906163009 | 56 | 304 | 0.0 | 0.0 | 0.00 | 0.09 | 0.09 | 92 | 1017.4 |
| 20260906162506 | 55 | 306 | 0.0 | 0.0 | 0.00 | 0.09 | 0.09 | 92 | 1017.5 |
| 20260906162002 | 55 | 302 | 0.0 | 0.0 | 0.00 | 0.09 | 0.09 | 93 | 1017.5 |
| 20260906161502 | 55 | 303 | 0.0 | 0.0 | 0.00 | 0.09 | 0.09 | 92 | 1017.6 |
| 20260906161000 | 55 | 313 | 0.0 | 0.0 | 0.00 | 0.09 | 0.09 | 93 | 1017.7 |
| 20260906160454 | 55 | 306 | 0.0 | 0.0 | 0.00 | 0.09 | 0.09 | 93 | 1017.6 |
| 20260906155952 | 0 | 343 | 0.0 | 0.0 | 0.00 | 0.09 | 0.09 | 1017.5 | |
| 20260906155451 | 0 | 319 | 0.0 | 0.0 | 0.00 | 0.09 | 0.09 | 1017.8 | |
| 20260906154947 | 0 | 326 | 0.0 | 0.0 | 0.00 | 0.09 | 0.09 | 1017.7 | |
| 20260906154442 | 54 | 335 | 0.0 | 0.0 | 0.00 | 0.09 | 0.09 | 93 | 1017.5 |
| 20260906153940 | 0 | 312 | 0.0 | 0.0 | 0.00 | 0.09 | 0.09 | 1017.8 | |
| 20260906153439 | 0 | 332 | 0.0 | 0.0 | 0.00 | 0.09 | 0.09 | 1017.7 | |
| 20260906152935 | 0 | 312 | 0.0 | 0.0 | 0.00 | 0.09 | 0.09 | 1018.1 | |
| 20260906152435 | 0 | 314 | 0.0 | 0.0 | 0.00 | 0.09 | 0.09 | 1018.0 | |
| 20260906151934 | 0 | 1 | 0.0 | 0.0 | 0.00 | 0.09 | 0.09 | 1017.9 | |
| 20260906151430 | 0 | 309 | 0.0 | 0.0 | 0.07 | 0.09 | 0.09 | 1018.3 | |
| 20260906150925 | 0 | 298 | 0.0 | 0.0 | 0.07 | 0.09 | 0.09 | 1018.1 | |
| 20260906150420 | 0 | 352 | 0.0 | 0.0 | 0.07 | 0.09 | 0.09 | 1018.2 | |
| 20260906145914 | 0 | 313 | 0.0 | 0.0 | 0.05 | 0.08 | 0.08 | 1018.3 | |
| 20260906145413 | 0 | 300 | 0.0 | 0.0 | 0.05 | 0.08 | 0.08 | 1018.0 | |
| 20260906144908 | 0 | 325 | 0.9 | 5.2 | 0.05 | 0.08 | 0.08 | 1018.1 | |
| 20260906144403 | 0 | 293 | 0.0 | 0.0 | 0.00 | 0.07 | 0.07 | 1018.2 | |
| 20260906143858 | 0 | 304 | 0.0 | 1.7 | 0.00 | 0.07 | 0.07 | 1018.0 | |
| 20260906143354 | 0 | 340 | 0.0 | 0.0 | 0.00 | 0.07 | 0.07 | 1018.2 | |
| 20260906142849 | 0 | 341 | 0.9 | 2.6 | 0.00 | 0.07 | 0.07 | 1018.1 | |
| 20260906142344 | 0 | 310 | 0.9 | 2.6 | 0.07 | 0.07 | 0.07 | 1018.1 | |
| 20260906141844 | 0 | 290 | 0.0 | 0.0 | 0.07 | 0.07 | 0.07 | 1018.2 | |
| 20260906141338 | 54 | 287 | 0.0 | 0.9 | 0.19 | 0.06 | 0.06 | 94 | 1018.3 |
| 20260906140838 | 54 | 286 | 1.7 | 6.1 | 0.31 | 0.06 | 0.06 | 94 | 1018.1 |
| 20260906140333 | 55 | 263 | 0.9 | 2.6 | 0.12 | 0.03 | 0.03 | 92 | 1018.2 |
| 20260906135830 | 55 | 297 | 1.7 | 5.2 | 0.00 | 0.01 | 0.01 | 92 | 1018.1 |
| 20260906135325 | 56 | 291 | 5.2 | 7.8 | 0.00 | 0.01 | 0.01 | 93 | 1017.9 |
| 20260906134821 | 56 | 278 | 0.9 | 0.9 | 0.05 | 0.01 | 0.01 | 92 | 1017.8 |
| 20260906134316 | 0 | 293 | 0.0 | 0.0 | 0.05 | 0.01 | 0.01 | 1017.7 | |
| 20260906133811 | 0 | 296 | 0.0 | 0.0 | 0.00 | 0.00 | 0.00 | 1017.6 | |
| 20260906133307 | 57 | 268 | 0.0 | 0.0 | 0.00 | 0.00 | 0.00 | 91 | 1017.9 |
| 20260906132803 | 0 | 258 | 0.0 | 0.0 | 0.00 | 0.00 | 0.00 | 1018.0 | |
| 20260906132306 | 0 | 256 | 0.0 | 0.0 | 0.00 | 0.00 | 0.00 | 1017.9 | |
| 20260906131758 | 0 | 264 | 0.0 | 0.0 | 0.00 | 0.00 | 0.00 | 1017.8 | |
| 20260906131253 | 0 | 280 | 0.0 | 0.0 | 0.00 | 0.00 | 0.00 | 1017.8 | |
| 20260906130748 | 0 | 288 | 0.0 | 0.0 | 0.00 | 0.00 | 0.00 | 1017.6 | |
| 20260906130244 | 0 | 294 | 0.0 | 0.0 | 0.00 | 0.00 | 0.00 | 1018.0 | |
| 20260906125742 | 0 | 268 | 0.0 | 0.0 | 0.00 | 0.00 | 0.00 | 1018.0 | |
| 20260906125240 | 0 | 302 | 0.0 | 0.0 | 0.00 | 0.00 | 0.00 | 1018.0 | |
| 20260906124735 | 0 | 298 | 0.0 | 0.0 | 0.00 | 0.00 | 0.00 | 1017.8 | |
| 20260906124231 | 0 | 330 | 0.0 | 1.7 | 0.00 | 0.00 | 0.00 | 1017.8 | |
| 20260906123730 | 57 | 350 | 0.0 | 0.0 | 0.00 | 0.00 | 0.00 | 87 | 1018.1 |
| 20260906123225 | 57 | 319 | 0.0 | 0.0 | 0.00 | 0.00 | 0.00 | 87 | 1017.9 |
| 20260906122725 | 57 | 313 | 0.0 | 0.0 | 0.00 | 0.00 | 0.00 | 87 | 1018.0 |
| 20260906122220 | 0 | 308 | 0.0 | 0.0 | 0.00 | 0.00 | 0.00 | 1017.7 | |
| 20260906121717 | 0 | 337 | 0.0 | 0.0 | 0.00 | 0.00 | 0.00 | 1017.7 | |
| 20260906121213 | 0 | 299 | 0.0 | 0.0 | 0.00 | 0.00 | 0.00 | 1017.9 | |
| 20260906120708 | 0 | 294 | 0.0 | 0.0 | 0.00 | 0.00 | 0.00 | 1017.8 | |
| 20260906120205 | 0 | 293 | 0.0 | 0.0 | 0.00 | 0.00 | 0.00 | 1017.6 | |
| 20260906115659 | 0 | 291 | 0.0 | 0.0 | 0.00 | 0.00 | 0.00 | 1017.6 | |
| 20260906115155 | 0 | 289 | 0.0 | 0.0 | 0.00 | 0.00 | 0.00 | 1017.4 | |
| 20260906114653 | 0 | 320 | 0.0 | 0.0 | 0.00 | 0.00 | 0.00 | 1017.5 | |
| 20260906114149 | 0 | 7 | 0.0 | 0.0 | 0.00 | 0.00 | 0.00 | 1017.0 | |
| 20260906113649 | 0 | 34 | 0.9 | 1.7 | 0.00 | 0.00 | 0.00 | 1017.0 | |
| 20260906113149 | 0 | 61 | 1.7 | 1.7 | 0.00 | 0.00 | 0.00 | 1017.2 | |
| 20260906112648 | 0 | 50 | 0.9 | 1.7 | 0.00 | 0.00 | 0.00 | 1017.5 | |
| 20260906112146 | 0 | 42 | 0.9 | 1.7 | 0.00 | 0.00 | 0.00 | 1017.5 | |
| 20260906111645 | 0 | 40 | 0.9 | 1.7 | 0.00 | 0.00 | 0.00 | 1017.2 | |
| 20260906111140 | 57 | 51 | 0.0 | 0.9 | 0.00 | 0.00 | 0.00 | 85 | 1017.5 |
| 20260906110635 | 0 | 35 | 0.0 | 0.0 | 0.00 | 0.00 | 0.00 | 1017.4 | |
| 20260906110130 | 0 | 24 | 0.0 | 0.0 | 0.00 | 0.00 | 0.00 | 1017.4 | |
| 20260906105624 | 0 | 38 | 0.0 | 0.0 | 0.00 | 0.00 | 0.00 | 1017.1 | |
| 20260906105120 | 0 | 29 | 0.9 | 1.7 | 0.00 | 0.00 | 0.00 | 1017.2 | |
| 20260906104620 | 0 | 32 | 0.0 | 0.0 | 0.00 | 0.00 | 0.00 | 1017.5 | |
| 20260906104114 | 0 | 0 | 0.9 | 1.7 | 0.00 | 0.00 | 0.00 | 1017.6 | |
| 20260906103612 | 0 | 21 | 0.0 | 1.7 | 0.00 | 0.00 | 0.00 | 1017.7 | |
| 20260906103108 | 0 | 25 | 0.9 | 1.7 | 0.00 | 0.00 | 0.00 | 1017.7 | |
| 20260906102607 | 0 | 2 | 0.0 | 0.0 | 0.00 | 0.00 | 0.00 | 1017.6 | |
| 20260906102102 | 0 | 12 | 0.0 | 0.0 | 0.00 | 0.00 | 0.00 | 1017.9 | |
| 20260906101557 | 0 | 354 | 0.0 | 0.0 | 0.00 | 0.00 | 0.00 | 1017.9 | |
| 20260906101051 | 0 | 335 | 0.0 | 0.0 | 0.00 | 0.00 | 0.00 | 1017.7 | |
| 20260906100547 | 0 | 1 | 0.0 | 0.0 | 0.00 | 0.00 | 0.00 | 1017.7 | |
| 20260906100047 | 0 | 345 | 0.0 | 0.0 | 0.00 | 0.00 | 0.00 | 1017.7 | |
| 20260906095542 | 0 | 16 | 0.9 | 1.7 | 0.00 | 0.00 | 0.00 | 1017.5 | |
| 20260906095037 | 0 | 4 | 0.0 | 0.0 | 0.00 | 0.00 | 0.00 | 1017.8 | |
| 20260906094536 | 0 | 358 | 0.0 | 0.9 | 0.00 | 0.00 | 0.00 | 1017.8 | |
| 20260906094032 | 0 | 331 | 0.0 | 0.0 | 0.00 | 0.00 | 0.00 | 1017.8 | |
| 20260906093528 | 0 | 341 | 0.0 | 0.0 | 0.00 | 0.00 | 0.00 | 1017.5 | |
| 20260906093022 | 0 | 5 | 0.0 | 0.9 | 0.00 | 0.00 | 0.00 | 1017.8 | |
| 20260906092517 | 0 | 26 | 0.0 | 0.0 | 0.00 | 0.00 | 0.00 | 1017.8 | |
| 20260906092013 | 0 | 2 | 0.0 | 0.0 | 0.00 | 0.00 | 0.00 | 1017.4 | |
| 20260906091508 | 0 | 29 | 0.0 | 0.9 | 0.00 | 0.00 | 0.00 | 1017.6 | |
| 20260906091004 | 0 | 8 | 1.7 | 1.7 | 0.00 | 0.00 | 0.00 | 1017.5 | |
| 20260906090459 | 0 | 329 | 0.0 | 1.7 | 0.00 | 0.00 | 0.00 | 1017.6 | |
| 20260906085958 | 0 | 4 | 0.0 | 0.0 | 0.00 | 0.00 | 0.00 | 1017.5 | |
| 20260906085458 | 57 | 12 | 0.0 | 1.7 | 0.00 | 0.00 | 0.00 | 85 | 1017.5 |
| 20260906084957 | 0 | 14 | 0.0 | 1.7 | 0.00 | 0.00 | 0.00 | 1017.6 | |
| 20260906084452 | 0 | 339 | 0.0 | 0.0 | 0.00 | 0.00 | 0.00 | 1017.5 | |
| 20260906083951 | 57 | 327 | 0.0 | 0.0 | 0.00 | 0.00 | 0.00 | 87 | 1017.5 |
| 20260906083447 | 57 | 343 | 0.0 | 0.0 | 0.00 | 0.00 | 0.00 | 87 | 1017.5 |
| 20260906082946 | 57 | 332 | 0.0 | 0.9 | 0.00 | 0.00 | 0.00 | 88 | 1017.8 |
| 20260906082442 | 56 | 331 | 0.9 | 2.6 | 0.00 | 0.00 | 0.00 | 88 | 1017.7 |
| 20260906081938 | 57 | 342 | 5.2 | 8.7 | 0.00 | 0.00 | 0.00 | 87 | 1017.8 |
| 20260906081432 | 0 | 351 | 1.7 | 3.5 | 0.00 | 0.00 | 0.00 | 1017.9 | |
| 20260906080929 | 57 | 338 | 4.3 | 8.7 | 0.00 | 0.00 | 0.00 | 89 | 1018.2 |
| 20260906080425 | 57 | 316 | 1.7 | 2.6 | 0.00 | 0.00 | 0.00 | 87 | 1018.3 |
| 20260906075924 | 57 | 349 | 9.6 | 12.2 | 0.00 | 0.00 | 0.00 | 87 | 1018.4 |
| 20260906075420 | 57 | 325 | 0.9 | 1.7 | 0.00 | 0.00 | 0.00 | 88 | 1018.4 |
| 20260906074914 | 57 | 326 | 0.9 | 1.7 | 0.00 | 0.00 | 0.00 | 88 | 1018.7 |
| 20260906074408 | 57 | 312 | 1.7 | 3.5 | 0.00 | 0.00 | 0.00 | 88 | 1018.9 |
| 20260906073907 | 57 | 348 | 3.5 | 7.0 | 0.00 | 0.00 | 0.00 | 88 | 1018.9 |
| 20260906073402 | 57 | 331 | 1.7 | 2.6 | 0.00 | 0.00 | 0.00 | 90 | 1019.0 |
| 20260906072859 | 57 | 297 | 0.0 | 0.0 | 0.00 | 0.00 | 0.00 | 89 | 1019.2 |
| 20260906072354 | 57 | 241 | 0.0 | 0.0 | 0.00 | 0.00 | 0.00 | 89 | 1019.5 |
| 20260906071844 | 56 | 268 | 0.0 | 0.0 | 0.00 | 0.00 | 0.00 | 89 | 1019.3 |
| 20260906071340 | 57 | 271 | 0.0 | 0.0 | 0.00 | 0.00 | 0.00 | 89 | 1019.4 |
| 20260906070836 | 57 | 282 | 0.0 | 0.0 | 0.00 | 0.00 | 0.00 | 90 | 1019.3 |
| 20260906070331 | 57 | 292 | 0.0 | 0.0 | 0.00 | 0.00 | 0.00 | 89 | 1019.3 |
| 20260906065826 | 57 | 290 | 0.0 | 0.9 | 0.00 | 0.00 | 0.00 | 89 | 1019.0 |
| 20260906065320 | 57 | 279 | 0.9 | 1.7 | 0.00 | 0.00 | 0.00 | 88 | 1019.1 |
| 20260906064816 | 57 | 277 | 0.9 | 2.6 | 0.00 | 0.00 | 0.00 | 88 | 1019.3 |
| 20260906064312 | 0 | 258 | 0.0 | 0.0 | 0.00 | 0.00 | 0.00 | 1019.3 | |
| 20260906063806 | 0 | 284 | 0.0 | 0.0 | 0.00 | 0.00 | 0.00 | 1019.3 | |
| 20260906063302 | 0 | 326 | 0.0 | 0.0 | 0.00 | 0.00 | 0.00 | 1019.2 | |
| 20260906062757 | 0 | 336 | 0.9 | 1.7 | 0.00 | 0.00 | 0.00 | 1019.1 | |
| 20260906062256 | 58 | 325 | 0.0 | 0.0 | 0.00 | 0.00 | 0.00 | 82 | 1018.9 |
| 20260906061752 | 0 | 323 | 2.6 | 6.1 | 0.00 | 0.00 | 0.00 | 1019.0 | |
| 20260906061248 | 0 | 346 | 0.0 | 0.0 | 0.00 | 0.00 | 0.00 | 1018.9 | |
| 20260906060743 | 0 | 25 | 3.5 | 6.1 | 0.00 | 0.00 | 0.00 | 1018.8 | |
| 20260906060241 | 59 | 26 | 0.0 | 0.9 | 0.00 | 0.00 | 0.00 | 81 | 1019.0 |
| 20260906055736 | 0 | 347 | 1.7 | 3.5 | 0.00 | 0.22 | 0.22 | 1019.0 | |
| 20260906055231 | 0 | 313 | 4.3 | 7.8 | 0.00 | 0.22 | 0.22 | 1019.0 | |
| 20260906054726 | 58 | 326 | 7.0 | 8.7 | 0.00 | 0.22 | 0.22 | 85 | 1018.9 |
| 20260906054221 | 0 | 338 | 0.0 | 0.0 | 0.00 | 0.22 | 0.22 | 1019.2 | |
| 20260906053718 | 0 | 343 | 0.0 | 0.0 | 0.00 | 0.22 | 0.22 | 1019.4 | |
| 20260906053213 | 0 | 346 | 0.9 | 0.9 | 0.00 | 0.22 | 0.22 | 1019.5 | |
| 20260906052708 | 0 | 331 | 0.9 | 1.7 | 0.00 | 0.22 | 0.22 | 1019.8 | |
| 20260906052205 | 0 | 309 | 0.0 | 0.0 | 0.00 | 0.22 | 0.22 | 1019.9 | |
| 20260906051701 | 0 | 252 | 1.7 | 2.6 | 0.00 | 0.22 | 0.22 | 1020.3 | |
| 20260906051200 | 0 | 287 | 0.0 | 0.0 | 0.00 | 0.22 | 0.22 | 1019.5 | |
| 20260906050656 | 0 | 19 | 0.0 | 0.9 | 0.00 | 0.22 | 0.22 | 1019.0 | |
| 20260906050151 | 0 | 328 | 2.6 | 6.1 | 0.00 | 0.22 | 0.22 | 1018.4 | |
| 20260906045649 | 0 | 342 | 0.9 | 1.7 | 0.00 | 0.22 | 0.22 | 1018.6 | |
| 20260906045145 | 0 | 338 | 2.6 | 3.5 | 0.00 | 0.22 | 0.22 | 1018.4 | |
| 20260906044641 | 0 | 290 | 0.9 | 2.6 | 0.00 | 0.22 | 0.22 | 1018.9 | |
| 20260906044136 | 0 | 299 | 1.7 | 3.5 | 0.00 | 0.22 | 0.22 | 1018.8 | |
| 20260906043632 | 0 | 321 | 0.9 | 3.5 | 0.00 | 0.22 | 0.22 | 1018.8 | |
| 20260906043127 | 0 | 322 | 0.0 | 0.0 | 0.00 | 0.22 | 0.22 | 1019.0 | |
| 20260906042627 | 0 | 316 | 0.0 | 0.0 | 0.00 | 0.22 | 0.22 | 1019.2 | |
| 20260906042122 | 0 | 317 | 0.0 | 0.0 | 0.00 | 0.22 | 0.22 | 1018.9 | |
| 20260906041618 | 0 | 338 | 0.9 | 1.7 | 0.00 | 0.22 | 0.22 | 1019.1 | |
| 20260906041117 | 0 | 350 | 5.2 | 7.8 | 0.00 | 0.22 | 0.22 | 1018.8 | |
| 20260906040613 | 0 | 318 | 0.0 | 0.9 | 0.00 | 0.22 | 0.22 | 1018.8 | |
| 20260906040109 | 0 | 311 | 0.0 | 0.0 | 0.00 | 0.22 | 0.22 | 1019.0 | |
| 20260906035604 | 0 | 346 | 6.1 | 7.8 | 0.00 | 0.22 | 0.22 | 1018.2 | |
| 20260906035059 | 0 | 329 | 0.0 | 0.0 | 0.00 | 0.22 | 0.22 | 1018.0 | |
| 20260906034559 | 0 | 320 | 0.9 | 1.7 | 0.00 | 0.22 | 0.22 | 1018.1 | |
| 20260906034055 | 0 | 328 | 1.7 | 3.5 | 0.00 | 0.22 | 0.22 | 1017.7 | |
| 20260906033550 | 59 | 322 | 0.0 | 0.0 | 0.00 | 0.22 | 0.22 | 87 | 1017.8 |
| 20260906033045 | 58 | 332 | 0.0 | 0.0 | 0.00 | 0.22 | 0.22 | 86 | 1017.8 |
| 20260906032542 | 58 | 345 | 0.0 | 0.0 | 0.00 | 0.22 | 0.22 | 86 | 1017.7 |
| 20260906032042 | 59 | 345 | 0.0 | 0.0 | 0.00 | 0.22 | 0.22 | 85 | 1017.8 |
| 20260906031537 | 59 | 347 | 5.2 | 8.7 | 0.00 | 0.22 | 0.22 | 83 | 1017.6 |
| 20260906031033 | 59 | 342 | 0.9 | 3.5 | 0.00 | 0.22 | 0.22 | 85 | 1018.0 |
| 20260906030532 | 58 | 325 | 0.0 | 0.9 | 0.00 | 0.22 | 0.22 | 87 | 1017.9 |
| 20260906030032 | 59 | 2 | 0.0 | 0.0 | 0.00 | 0.22 | 0.22 | 85 | 1018.1 |
| 20260906025532 | 59 | 316 | 0.0 | 0.0 | 0.00 | 0.22 | 0.22 | 84 | 1017.6 |
| 20260906025030 | 0 | 323 | 3.5 | 5.2 | 0.12 | 0.22 | 0.22 | 1017.8 | |
| 20260906024525 | 59 | 338 | 0.0 | 0.0 | 0.85 | 0.22 | 0.22 | 82 | 1018.0 |
| 20260906024025 | 61 | 344 | 2.6 | 3.5 | 0.73 | 0.20 | 0.20 | 81 | 1017.4 |
| 20260906023521 | 64 | 332 | 0.0 | 0.9 | 0.00 | 0.08 | 0.08 | 63 | 1018.3 |
| 20260906023016 | 64 | 254 | 2.6 | 5.2 | 0.00 | 0.08 | 0.08 | 63 | 1018.9 |
| 20260906022512 | 0 | 287 | 1.7 | 1.7 | 0.00 | 0.08 | 0.08 | 1017.7 | |
| 20260906022007 | 64 | 309 | 7.0 | 7.8 | 0.00 | 0.08 | 0.08 | 63 | 1016.7 |
| 20260906021502 | 64 | 327 | 3.5 | 5.2 | 0.00 | 0.08 | 0.08 | 63 | 1016.4 |
| 20260906020956 | 64 | 320 | 3.5 | 6.1 | 0.00 | 0.08 | 0.08 | 63 | 1016.1 |
| 20260906020450 | 64 | 357 | 4.3 | 5.2 | 0.00 | 0.08 | 0.08 | 63 | 1016.0 |
| 20260906015949 | 64 | 335 | 3.5 | 7.0 | 0.00 | 0.08 | 0.08 | 62 | 1016.4 |
| 20260906015449 | 64 | 335 | 0.0 | 0.9 | 0.00 | 0.08 | 0.08 | 62 | 1016.5 |
| 20260906014949 | 64 | 326 | 1.7 | 7.0 | 0.00 | 0.08 | 0.08 | 62 | 1016.3 |
| 20260906014449 | 64 | 347 | 0.0 | 0.9 | 0.00 | 0.08 | 0.08 | 61 | 1016.4 |
| 20260906013945 | 64 | 5 | 0.0 | 0.9 | 0.00 | 0.08 | 0.08 | 61 | 1016.4 |
| 20260906013440 | 65 | 318 | 0.0 | 0.0 | 0.00 | 0.08 | 0.08 | 60 | 1016.5 |
| 20260906012936 | 65 | 315 | 0.0 | 0.9 | 0.00 | 0.08 | 0.08 | 60 | 1016.3 |
| 20260906012431 | 65 | 321 | 0.0 | 0.0 | 0.00 | 0.08 | 0.08 | 59 | 1016.5 |
| 20260906011930 | 66 | 344 | 0.0 | 0.0 | 0.00 | 0.08 | 0.08 | 59 | 1016.4 |
| 20260906011426 | 66 | 317 | 0.0 | 0.9 | 0.00 | 0.08 | 0.08 | 58 | 1016.1 |
| 20260906010921 | 66 | 350 | 0.9 | 1.7 | 0.00 | 0.08 | 0.08 | 57 | 1016.5 |
| 20260906010416 | 67 | 329 | 0.0 | 1.7 | 0.00 | 0.08 | 0.08 | 56 | 1016.5 |
| 20260906005912 | 67 | 349 | 0.0 | 0.9 | 0.00 | 0.08 | 0.08 | 55 | 1016.3 |
| 20260906005412 | 0 | 20 | 0.0 | 0.9 | 0.00 | 0.08 | 0.08 | 1016.3 | |
| 20260906004910 | 69 | 333 | 0.0 | 0.0 | 0.00 | 0.08 | 0.08 | 52 | 1016.5 |
| 20260906004404 | 69 | 329 | 0.0 | 0.0 | 0.00 | 0.08 | 0.08 | 52 | 1016.3 |
| 20260906003900 | 70 | 330 | 1.7 | 6.1 | 0.00 | 0.08 | 0.08 | 51 | 1016.4 |
| 20260906003355 | 69 | 358 | 1.7 | 5.2 | 0.00 | 0.08 | 0.08 | 50 | 1016.3 |
| 20260906002851 | 69 | 328 | 0.9 | 3.5 | 0.00 | 0.08 | 0.08 | 51 | 1016.5 |
| 20260906002350 | 69 | 315 | 0.9 | 3.5 | 0.00 | 0.08 | 0.08 | 51 | 1016.3 |
| 20260906001846 | 69 | 336 | 0.0 | 0.0 | 0.00 | 0.08 | 0.08 | 51 | 1016.3 |
| 20260906001341 | 70 | 343 | 0.0 | 0.0 | 0.00 | 0.08 | 0.08 | 50 | 1016.7 |
| 20260906000837 | 72 | 327 | 8.7 | 11.3 | 0.00 | 0.08 | 0.08 | 48 | 1016.6 |
| 20260906000336 | 72 | 359 | 0.0 | 0.0 | 0.00 | 0.08 | 0.08 | 46 | 1017.0 |
| 20260905235836 | 73 | 343 | 0.9 | 1.7 | 0.00 | 0.08 | 0.08 | 46 | 1016.6 |
| 20260905235331 | 72 | 342 | 0.0 | 0.0 | 0.00 | 0.08 | 0.08 | 44 | 1016.8 |